AirNav   Air Wisconsin Up To $57,000 Bonus
 
 1048 users online  

9CL2 Christensen Ranch Airport
Hollister, California, USA

GOING TO HOLLISTER?


FAA INFORMATION EFFECTIVE 02 DECEMBER 2021

Location

FAA Identifier: 9CL2
Lat/Long: 36-52-17.8320N 121-20-13.7540W
36-52.297200N 121-20.229233W
36.8716200,-121.3371539
(estimated)
Elevation: 380 ft. / 116 m (estimated)
Variation: 15E (1985)
From city: 3 miles NE of HOLLISTER, CA
Time zone: UTC -8 (UTC -7 during Daylight Saving Time)
Zip code: 95023

Airport Operations

Airport use: Private use. Permission required prior to landing
Activation date: 11/1970
Control tower: no
ARTCC: OAKLAND CENTER
FSS: OAKLAND FLIGHT SERVICE STATION
Attendance: CONTINUOUS
Wind indicator: no
Segmented circle: no

Airport Communications

WX AWOS-3 at CVH (4 nm W): 120.425 (831-636-4394)
WX AWOS-3P at E16 (18 nm NW): 118.350 (408-918-7724)
WX ASOS at SNS (18 nm SW): PHONE 831-422-2830

Nearby radio navigation aids

VOR radial/distance  VOR name  Freq  Var
SNSr029/17.9SALINAS VORTAC117.3017E
PXNr273/28.4PANOCHE VORTAC112.6016E

 
NDB name  Hdg/Dist  Freq  Var  ID
CHUALAR000/23.826316EUAD ..- .- -..

Airport Services

Airframe service: NONE
Powerplant service: NONE

Runway Information

Runway 7/25

Dimensions: 3000 x 50 ft. / 914 x 15 m
Surface: asphalt
RUNWAY 7  RUNWAY 25
Traffic pattern: rightright

Airport Ownership and Management from official FAA records

Ownership: Privately-owned
Owner: F. L. CHRISTENSEN
PO BOX 25033
JACKSON, WY 83001
Phone 307-733-1789
Manager: Phone 408-637-7406

Additional Remarks

PVT USE ARPT LCTD ADJ TO RANCH RESIDENCE.
FOR CD CTC NORCAL APCH AT 916-361-3748.

Instrument Procedures

There are no published instrument procedures at 9CL2.

Some nearby airports with instrument procedures:

KCVH - Hollister Municipal Airport (4 nm W)
E16 - San Martin Airport (18 nm NW)
KSNS - Salinas Municipal Airport (18 nm SW)
KWVI - Watsonville Municipal Airport (22 nm W)
KOAR - Marina Municipal Airport (23 nm SW)
 
Loc | Ops | Rwys | IFR | FBO | Links
Com | Nav | Svcs | Stats | Notes
Area around 9CL2 (Christensen Ranch Airport)
 
Road maps at: MapQuest Bing Google
 
Aerial photo
No photo
 
Sectional chart

 
Airport distance calculator
Flying to Christensen Ranch Airport? Find the distance to fly.

From to 9CL2

Sunrise and sunset
Times for 07-Dec-2021
 Local
(UTC-8)
 Zulu
(UTC)
Morning civil twilight06:3714:37
Sunrise07:0615:06
Sunset16:4800:48
Evening civil twilight17:1601:16

Current date and time
Zulu (UTC)  07-Dec-2021 23:43:55
Local (UTC-8)  07-Dec-2021 15:43:55
 
METAR
KCVH 
4nm W 
072315Z AUTO 31007KT 10SM CLR 17/11 A2996 RMK A01
KSNS 
18nm SW 
072253Z 33004KT 10SM CLR 19/12 A2994 RMK AO2 SLP148 T01890122
KE16 
18nm NW 
072315Z AUTO 32006KT 10SM BKN014 14/11 A2998 RMK AO2 PWINO PNO
TAF
KSNS 
18nm SW 
071737Z 0718/0818 VRB05KT 6SM BR SCT020 OVC030 FM072000 08005KT P6SM SCT030 FM080700 12006KT P6SM SCT250 FM080900 VRB04KT 4SM BR SCT015 FM081200 VRB04KT 2SM BR BKN015 FM081700 VRB05KT 6SM BR SCT015
NOTAMs
Click for the latest NOTAMs
NOTAMs are issued by the DoD/FAA and will open in a separate window not controlled by AirNav.

 

 
 

Would you like to see your business listed on this page?

 If your business provides an interesting product or service to pilots, flight crews, aircraft, or users of the Christensen Ranch Airport, you should consider listing it here.  To start the listing process, click on the button below
 
Add a business
 

Other Pages about Christensen Ranch Airport

Update a link
 
Copyright © AirNav, LLC. All rights reserved. Privacy Policy  Contact